BEIDOU-3 M24 (C46)

Last updated on Thu Jul 03 2025 00:03:22 GMT+0000 (Coordinated Universal Time)

1 44542U 19061A 25183.14777348 .00000080 00000+0 00000+0 0 9992 2 44542 54.4115 194.5324 0008108 349.6935 10.3186 1.86229333 39272
UTC large
Height (km)
Speed (km/s)
/
Latitude / Longitude
Inclination (degrees)
Orbital Period (minutes)
Azimuth
Elevation
Range (km)
Doppler Factor

Next 0 passes for location: London (51.5072 / 0.1276)

Sorry there are no passes over London.